This is the latest recevied weather packets stored in our database for station/object NY3Q. If no packets are shown the sender has not sent any weather packets the latest 10 day(s).
| Time | Temp. | Humidity | Pressure | Rain* | Wind** | Luminosity | Snow |
|---|---|---|---|---|---|---|---|
| 1777503066 | 29.44° C | 62% | 1009.7 hPa | 0 mm | - | 60 W/m² | - |
| 1777502764 | 30° C | 60% | 1009.6 hPa | 0 mm | - | 113 W/m² | - |
| 1777502460 | 30° C | 59% | 1009.7 hPa | 0 mm | - | 90 W/m² | - |
| 1777502157 | 30.56° C | 57% | 1009.7 hPa | 0 mm | - | 99 W/m² | - |
| 1777501855 | 31.11° C | 56% | 1009.6 hPa | 0 mm | - | 159 W/m² | - |
| 1777501552 | 31.11° C | 55% | 1009.6 hPa | 0 mm | - | 138 W/m² | - |
| 1777501249 | 31.67° C | 52% | 1009.5 hPa | 0 mm | - | 65 W/m² | - |
| 1777500947 | 32.22° C | 42% | 1009.5 hPa | 0 mm | - | 63 W/m² | - |
| 1777500644 | 32.22° C | 42% | 1009.4 hPa | 0 mm | - | 84 W/m² | - |
| 1777500341 | 32.22° C | 42% | 1009.4 hPa | 0 mm | - | 84 W/m² | - |
| 1777500037 | 32.78° C | 42% | 1009.5 hPa | 0 mm | - | 89 W/m² | - |
| 1777499733 | 32.78° C | 40% | 1009.7 hPa | 0 mm | - | 110 W/m² | - |
| 1777499430 | 33.33° C | 40% | 1009.4 hPa | 0 mm | - | 99 W/m² | - |
| 1777499129 | 33.33° C | 39% | 1009.5 hPa | 0 mm | - | 108 W/m² | - |
| 1777498825 | 33.33° C | 39% | 1009.7 hPa | 0 mm | - | 311 W/m² | - |
| 1777498521 | 33.33° C | 39% | 1009.8 hPa | 0 mm | - | 128 W/m² | - |
| 1777498217 | 32.78° C | 41% | 1009.9 hPa | 0 mm | - | 372 W/m² | - |
| 1777497916 | 32.78° C | 40% | 1010.1 hPa | 0 mm | - | 140 W/m² | - |
| 1777497612 | 33.33° C | 40% | 1010.2 hPa | 0 mm | - | 106 W/m² | - |
| 1777497308 | 33.89° C | 39% | 1010.1 hPa | 0 mm | - | 122 W/m² | - |
| 1777497004 | 33.89° C | 39% | 1009.9 hPa | 0 mm | - | 417 W/m² | - |
| 1777496701 | 34.44° C | 39% | 1010 hPa | 0 mm | - | 126 W/m² | - |
| 1777496397 | 35° C | 38% | 1010.2 hPa | 0 mm | - | 129 W/m² | - |
| 1777496094 | 34.44° C | 39% | 1010.2 hPa | 0 mm | - | 443 W/m² | - |
| 1777495790 | 33.89° C | 39% | 1010.2 hPa | 0 mm | - | 439 W/m² | - |
* Rain latest hour (hover to see other rain measurements)
** Current wind speed in m/s (hover to see current wind gust speed)